Location: Ford County Road and Bridge Department
(37.7686°N, 99.9762°W)
Time: 03:43:16
(UTC+00:00)

USA 234 - Pass Details

Date: 18 January 2020
Orbit: 1100 x 1107 km, 123.0° (Epoch: 09 February)

Event Time Altitude Azimuth Distance (km) Brightness Sun altitude
Rises 00:14:51 0° 142° (SE) 3,901 6.0 -5.9°
Reaches altitude 10° 00:17:20 10° 144° (SE) 2,947 5.4 -6.4°
Maximum altitude 00:23:49 69° 227° (SW) 1,174 3.7 -7.6°
Drops below altitude 10° 00:30:20 10° 311° (NW) 2,963 6.0 -8.8°
Sets 00:32:50 0° 314° (NW) 3,924 6.6 -9.3°
